754  
ASUS41 KLWX 251511  
RWRLWX  
 
REGIONAL WEATHER ROUNDUP  
NATIONAL WEATHER SERVICE BALTIMORE MD/WASHINGTON DC  
1100 AM EDT SUN JUN 25 2017  
 
NOTE: "FAIR" INDICATES FEW OR NO CLOUDS BELOW 12,000 FEET  
WITH NO SIGNIFICANT WEATHER AND/OR S TO VISIBILITY
.  
TC=TEMPERATURE CELSIUS  
 
* =NON NWS SITE. STATION DOES NOT REPORT PRECIPITATION (E.G. RAIN,  
SNOW, ETC.), THUNDER, OR FOG.
 
 
DCZ001-MDZ009-015-VAZ040>042-051-053>054-251600-  
WASHINGTON METRO  
 
CITY SKY/WX TMP DP RH WIND PRES REMARKS
 
WASHINGTON NAT PTSUNNY 82 60 47 NW7 30.04S  
DULLES PTSUNNY 78 60 53 W3 30.05R  
ANDREWS AFB MOSUNNY 81 59 47 N3 30.03S  
FT BELVOIR MOSUNNY 81 57 44 W3 30.04S  
QUANTICO PTSUNNY 83 60 45 VRB5 30.05S  
COLLEGE PARK* PTSUNNY 79 60 51 N3 30.03S  
LEESBURG* MOSUNNY N/A N/A N/A CALM 30.06S  
MANASSAS* SUNNY 81 62 52 NW9 30.06R  
GAITHERSBURG* PTSUNNY 74 61 63 W5 30.06S  
 

 
 
MDZ006>007-011-014-251600-  
BALTIMORE METRO  
 
CITY SKY/WX TMP DP RH WIND PRES REMARKS
 
BWI AIRPORT PTSUNNY 81 59 47 N6 30.02F  
MD SCIENCE CTR N/A 82 58 43 MISG 30.02F  
MARTIN STATE PTSUNNY 81 63 54 CALM 30.03S  
ANNAPOLIS PTSUNNY 77 64 64 N5 30.02S  
FORT MEADE* PTSUNNY 79 61 53 CALM 30.06S  
 

 
 
MDZ012-015-019>023-251600-  
MARYLAND EASTERN SHORE  
 
CITY SKY/WX TMP DP RH WIND PRES REMARKS
 
OCEAN CITY PTSUNNY 80 67 64 E6 30.01S  
SALISBURY CLOUDY 81 65 58 NW8 30.02R  
BAY BRIDGE AP* MOSUNNY 79 63 57 NW5 30.03S  
CAMBRIDGE* MOSUNNY 81 64 57 VRB6G13 30.02S  
EASTON* PTSUNNY 81 61 50 N5 30.06S  
 

 
 
MDZ017>025-251600-  
SOUTHERN MARYLAND  
 
CITY SKY/WX TMP DP RH WIND PRES REMARKS
 
PATUXENT RIVER PTSUNNY 83 58 42 N14G21 30.03R  
ST INIGOES CLOUDY 82 61 48 VRB5 30.03R  
LEONARDTOWN* MOSUNNY 79 61 53 NW9 30.05S  
 

 
 
MDZ003>005-251600-  
NORTH CENTRAL MARYLAND  
 
CITY SKY/WX TMP DP RH WIND PRES REMARKS
 
FREDERICK* SUNNY 81 55 41 CALM 30.07R  
HAGERSTOWN APT MOSUNNY 76 59 55 S7 30.05S  
WESTMINSTER* PTSUNNY 79 61 53 W5 30.04S  
 

 
 
MDZ501>502-251600-  
WESTERN MARYLAND  
 
CITY SKY/WX TMP DP RH WIND PRES REMARKS
 
OAKLAND* NOT AVBL  
CUMBERLAND* MOSUNNY 73 55 53 SW5 30.11R  
 

 
 
VAZ025>031-251600-  
SHENANDOAH VALLEY  
 
CITY SKY/WX TMP DP RH WIND PRES REMARKS
 
WINCHESTER* MOSUNNY 77 54 44 W7 30.06S  
FRONT ROYAL* PTSUNNY 77 57 50 SW6 30.06S  
LURAY* MOSUNNY 77 57 50 SW7 30.08S  
NEW MARKET* PTSUNNY 77 53 43 W7 30.08S  
STAUNTON* PTSUNNY 73 56 54 W3 30.12R  
WAYNESBORO* MOSUNNY 74 55 49 NW14 30.11S  
 

 
 
WVZ021-048>050-054>055-251600-  
EASTERN WEST VIRGINIA PANHANDLE  
 
CITY SKY/WX TMP DP RH WIND PRES REMARKS
 
MARTINSBURG MOSUNNY 77 58 51 MISG 30.05S  
PETERSBURG* MOSUNNY 77 56 47 W6 30.11R  
 

 
 
VAZ036>039-050-251600-  
CENTRAL FOOTHILLS  
 
CITY SKY/WX TMP DP RH WIND PRES REMARKS
 
CHARLOTTESVILL MOSUNNY 80 60 50 CALM 30.07S  
CULPEPER* SUNNY 81 60 49 NW6 30.07R  
ORANGE* SUNNY 79 59 50 CALM 30.06S  
GORDONSVILLE* SUNNY 80 61 52 W6 30.06S  
WARRENTON* SUNNY 83 54 36 W6 30.06R  
 

 
 
VAZ055>057-251600-  
NORTH AND CENTRAL PIEDMONT  
 
CITY SKY/WX TMP DP RH WIND PRES REMARKS
 
FREDERICKSBRG* MOSUNNY 81 61 50 NW5 30.04S  
STAFFORD* MOSUNNY 81 57 44 W3 30.09S  
 

 
 
NCZ024-NYZ072-PAZ021-071-VAZ022-071-251600-  
OTHER REGIONAL OBSERVATIONS  
 
CITY SKY/WX TMP DP RH WIND PRES REMARKS
 
NEW YORK CITY SUNNY 78 55 44 CALM 30.02R  
PHILADELPHIA PTSUNNY 80 58 46 SE7 30.01S  
PITTSBURGH MOSUNNY 71 51 49 W10G21 30.08S  
ROANOKE PTSUNNY 75 57 53 W8 30.15S  
RICHMOND CLOUDY 80 63 55 N8 30.06R  
RALEIGH PTSUNNY 79 65 62 N8 30.09R  
 

 
 
ANZ530>537-251600-  
MARINE OBSERVATIONS  
 
STATION/POSITION TIME TEMP WIND PRES
 
AIR SEA DIR/SP/G  
(UTC) (F) (DEG/KT/KT) (MB)  
THOMAS PT LIGHT 1500 77 78 360/ 4/ 4 N/A  
BALT KEY BRIDGE 1448 78 CALM / 1 1016.5F  
COVE POINT 1448 77 350/ 12/ 15 1017.7R  
LEWISETTA 1448 79 79 360/ 8/ 11 1017.0R  
SOLOMONS ISLAND 1442 79 78 330/ 8/ 12 N/A  
PINEY POINT 1442 340/ 9/ 11 N/A  
 

 
 
 
 
CLICK HERE TO GO TO PREVIOUS BULLETINS.

The Nexlab VA Page
The Nexlab MD Page
The Nexlab WV Page Main Text Page